STARLINK-34889

Last updated on Mon Oct 20 2025 00:02:06 GMT+0000 (Coordinated Universal Time)

1 65761U 25216AD 25292.23180011 .00143315 00000+0 25332-2 0 9990 2 65761 53.1590 272.2225 0001413 98.0189 262.0980 15.49361436 4908
UTC large
Height (km)
Speed (km/s)
/
Latitude / Longitude
Inclination (degrees)
Orbital Period (minutes)
Azimuth
Elevation
Range (km)
Doppler Factor

Next 0 passes for location: London (51.5072 / 0.1276)

Sorry there are no passes over London.